START_TIME,STEP,MOV.,M6,t_acc.,M7,t_acc.,M19,t_acc.,H36,t_acc.
1980-11-14 09:04:12.070 ,0,0,,0,,0,,0,,0
1980-11-14 09:04:24.070 ,0,0,,0,,0,,0,,0
1980-11-14 09:04:15.670 ,0,0,,0,,0,,0,,0
1980-11-14 09:04:27.670 ,0,0,,0,,0,,0,,0
1980-11-14 09:09:10.270 ,0,0,,0,,0,,0,,0
1980-11-14 09:09:22.270 ,0,0,0.,12.0,0.,12.0,0.,12.0,0.,12.0
1980-11-14 09:09:27.670 ,2,1,0.,12.0,0.,12.0,0.,12.0,0.,12.0
1980-11-14 09:09:39.670 ,2,1,0.,12.0,0.,12.0,0.,12.0,0.,12.0
1980-11-14 09:09:51.670 ,2,0,0.,12.0,0.,12.0,0.,12.0,0.,12.0
1980-11-14 09:10:03.670 ,2,0,0.,12.0,0.,12.0,0.,12.0,0.,12.0
1980-11-14 09:10:15.670 ,3,1,0.,12.0,0.,12.0,0.,12.0,0.,12.0
1980-11-14 09:10:27.670 ,3,1,0.,12.0,0.,12.0,0.,12.0,0.,12.0
1980-11-14 09:10:39.670 ,3,0,0.,12.0,0.,12.0,0.,12.0,0.,12.0
1980-11-14 09:10:51.670 ,3,0,0.,12.0,0.,12.0,0.,12.0,0.,12.0
1980-11-14 09:11:03.670 ,4,1,0.,12.0,0.,12.0,0.,12.0,0.,12.0
1980-11-14 09:11:15.670 ,4,1,0.,12.0,0.,12.0,0.,12.0,0.,12.0
1980-11-14 09:11:27.670 ,4,0,0.,12.0,0.,12.0,0.,12.0,0.,12.0
1980-11-14 09:11:39.670 ,4,0,0.,12.0,0.,12.0,0.,12.0,0.,12.0
1980-11-14 09:11:51.670 ,5,1,0.,12.0,0.,12.0,0.,12.0,0.,12.0
1980-11-14 09:12:03.670 ,5,1,0.,12.0,0.,12.0,0.,12.0,0.,12.0
1980-11-14 09:12:15.670 ,5,0,0.,12.0,0.,12.0,0.,12.0,0.,12.0
1980-11-14 09:12:27.670 ,5,0,0.,12.0,0.,12.0,0.,12.0,0.,12.0
1980-11-14 09:12:39.670 ,6,1,0.,12.0,0.,12.0,0.,12.0,0.,12.0
1980-11-14 09:12:51.670 ,6,1,0.,12.0,0.,12.0,0.,12.0,0.,12.0
1980-11-14 09:13:03.670 ,6,0,0.,12.0,0.,12.0,0.,12.0,0.,12.0
1980-11-14 09:13:15.670 ,6,0,0.,12.0,0.,12.0,0.,12.0,0.,12.0
1980-11-14 09:13:27.670 ,7,1,0.,12.0,0.,12.0,0.,12.0,0.,12.0
1980-11-14 09:13:39.670 ,7,1,0.,12.0,0.,12.0,0.,12.0,0.,12.0
1980-11-14 09:13:51.670 ,7,0,0.,12.0,0.,12.0,0.,12.0,0.,12.0
1980-11-14 09:14:03.670 ,7,0,0.,12.0,0.,12.0,0.,12.0,0.,12.0
1980-11-14 09:14:15.670 ,7,1,0.,12.0,0.,12.0,0.,12.0,0.,12.0
1980-11-14 09:14:27.670 ,7,1,0.,12.0,0.,12.0,0.,12.0,0.,12.0
1980-11-14 09:14:39.670 ,7,0,0.,12.0,0.,12.0,0.,12.0,0.,12.0
1980-11-14 09:14:51.670 ,7,0,0.,12.0,0.,12.0,0.,12.0,0.,12.0
1980-11-14 09:15:03.670 ,6,1,0.,12.0,0.,12.0,0.,12.0,0.,12.0
1980-11-14 09:15:15.670 ,6,1,0.,12.0,0.,12.0,0.,12.0,0.,12.0
1980-11-14 09:15:27.670 ,6,0,0.,12.0,0.,12.0,0.,12.0,0.,12.0
1980-11-14 09:15:39.670 ,6,0,0.,12.0,0.,12.0,0.,12.0,0.,12.0
1980-11-14 09:15:51.670 ,5,1,0.,12.0,0.,12.0,0.,12.0,0.,12.0
1980-11-14 09:16:03.670 ,5,1,0.,12.0,0.,12.0,0.,12.0,0.,12.0
1980-11-14 09:16:15.670 ,5,0,0.,12.0,0.,12.0,0.,12.0,0.,12.0
1980-11-14 09:16:27.670 ,5,0,0.,12.0,0.,12.0,0.,12.0,0.,12.0
1980-11-14 09:16:39.670 ,4,1,0.,12.0,0.,12.0,0.,12.0,0.,12.0
1980-11-14 09:16:51.670 ,4,1,0.,12.0,0.,12.0,0.,12.0,0.,12.0
1980-11-14 09:17:03.670 ,4,0,0.,12.0,0.,12.0,0.,12.0,0.,12.0
1980-11-14 09:17:15.670 ,4,0,0.,12.0,0.,12.0,0.,12.0,0.,12.0
1980-11-14 09:17:27.670 ,3,1,0.,12.0,0.,12.0,0.,12.0,0.,12.0
1980-11-14 09:17:39.670 ,3,1,0.,12.0,0.,12.0,0.,12.0,0.,12.0
1980-11-14 09:17:51.670 ,3,0,0.,12.0,0.,12.0,0.,12.0,0.,12.0
1980-11-14 09:18:03.670 ,3,0,0.,12.0,0.,12.0,0.,12.0,0.,12.0
1980-11-14 09:18:15.670 ,2,1,0.,12.0,0.,12.0,0.,12.0,0.,12.0
1980-11-14 09:18:27.670 ,2,1,0.,12.0,0.,12.0,0.,12.0,0.,12.0
1980-11-14 09:18:39.670 ,2,0,0.,12.0,0.,12.0,0.,12.0,0.,12.0
1980-11-14 09:18:51.670 ,2,0,0.,12.0,0.,12.0,0.,12.0,0.,12.0
1980-11-14 09:19:03.670 ,1,1,0.,12.0,0.,12.0,0.,12.0,0.,12.0
1980-11-14 09:19:15.670 ,1,1,0.,12.0,0.,12.0,0.,12.0,0.,12.0
1980-11-14 09:19:27.670 ,1,0,0.,12.0,0.,12.0,0.,12.0,0.,12.0
1980-11-14 09:19:39.670 ,1,0,0.,12.0,0.,12.0,0.,12.0,0.,12.0
1980-11-14 09:19:51.670 ,0,1,0.,12.0,0.,12.0,0.,12.0,0.,12.0
1980-11-14 09:20:03.670 ,0,1,0.,12.0,0.,12.0,0.,12.0,0.,12.0
1980-11-14 09:20:15.670 ,0,0,0.,12.0,0.,12.0,0.,12.0,0.,12.0
1980-11-14 09:20:27.670 ,0,0,0.,12.0,0.,12.0,0.,12.0,0.,12.0
1980-11-14 09:20:39.670 ,0,1,0.,12.0,0.,12.0,0.,12.0,0.,12.0
1980-11-14 09:20:51.670 ,0,1,0.,12.0,0.,12.0,0.,12.0,0.,12.0
1980-11-14 09:21:03.670 ,0,0,0.,12.0,0.,12.0,0.,12.0,0.,12.0
1980-11-14 09:21:15.670 ,0,0,,0,,0,,0,,0
1980-11-14 09:21:22.270 ,0,0,,0,,0,,0,,0
1980-11-14 09:21:34.270 ,0,0,,0,,0,,0,,0
1980-11-14 09:21:27.670 ,1,1,0.,12.0,0.,12.0,0.,12.0,0.,12.0
1980-11-14 09:21:39.670 ,1,1,0.,12.0,0.,12.0,0.,12.0,0.,12.0
1980-11-14 09:21:51.670 ,1,0,0.,12.0,0.,12.0,0.,12.0,0.,12.0
1980-11-14 09:22:03.670 ,1,0,0.,12.0,0.,12.0,0.,12.0,0.,12.0
1980-11-14 09:22:15.670 ,2,1,0.,12.0,0.,12.0,0.,12.0,0.,12.0
1980-11-14 09:22:27.670 ,2,1,0.,12.0,0.,12.0,0.,12.0,0.,12.0
1980-11-14 09:22:39.670 ,2,0,0.,12.0,0.,12.0,0.,12.0,0.,12.0
1980-11-14 09:22:51.670 ,2,0,0.,12.0,0.,12.0,0.,12.0,0.,12.0
1980-11-14 09:23:03.670 ,3,1,0.,12.0,0.,12.0,0.,12.0,0.,12.0
1980-11-14 09:23:15.670 ,3,1,0.,12.0,0.,12.0,0.,12.0,0.,12.0
1980-11-14 09:23:27.670 ,3,0,0.,12.0,0.,12.0,0.,12.0,0.,12.0
1980-11-14 09:23:39.670 ,3,0,0.,12.0,0.,12.0,0.,12.0,0.,12.0
1980-11-14 09:23:51.670 ,4,1,0.,12.0,0.,12.0,0.,12.0,0.,12.0
1980-11-14 09:24:03.670 ,4,1,0.,12.0,0.,12.0,0.,12.0,0.,12.0
1980-11-14 09:24:15.670 ,4,0,0.,12.0,0.,12.0,0.,12.0,0.,12.0
1980-11-14 09:24:27.670 ,4,0,0.,12.0,0.,12.0,0.,12.0,0.,12.0
1980-11-14 09:24:39.670 ,5,1,0.,12.0,0.,12.0,0.,12.0,0.,12.0
1980-11-14 09:24:51.670 ,5,1,0.,12.0,0.,12.0,0.,12.0,0.,12.0
1980-11-14 09:25:03.670 ,5,0,0.,12.0,0.,12.0,0.,12.0,0.,12.0
1980-11-14 09:25:15.670 ,5,0,0.,12.0,0.,12.0,0.,12.0,0.,12.0
1980-11-14 09:25:27.670 ,6,1,0.,12.0,0.,12.0,0.,12.0,0.,12.0
1980-11-14 09:25:39.670 ,6,1,0.,12.0,0.,12.0,0.,12.0,0.,12.0
1980-11-14 09:25:51.670 ,6,0,0.,12.0,0.,12.0,0.,12.0,0.,12.0
1980-11-14 09:26:03.670 ,6,0,0.,12.0,0.,12.0,0.,12.0,0.,12.0
1980-11-14 09:26:15.670 ,7,1,0.,12.0,0.,12.0,0.,12.0,0.,12.0
1980-11-14 09:26:27.670 ,7,1,0.,12.0,0.,12.0,0.,12.0,0.,12.0
1980-11-14 09:26:39.670 ,7,0,0.,12.0,0.,12.0,0.,12.0,0.,12.0
1980-11-14 09:26:51.670 ,7,0,0.,12.0,0.,12.0,0.,12.0,0.,12.0
1980-11-14 09:27:03.670 ,7,1,0.,12.0,0.,12.0,0.,12.0,0.,12.0
1980-11-14 09:27:15.670 ,7,1,0.,12.0,0.,12.0,0.,12.0,0.,12.0
1980-11-14 09:27:27.670 ,7,0,0.,12.0,0.,12.0,0.,12.0,0.,12.0
1980-11-14 09:27:39.670 ,7,0,0.,12.0,0.,12.0,0.,12.0,0.,12.0
1980-11-14 09:27:51.670 ,6,1,0.,12.0,0.,12.0,0.,12.0,0.,12.0
1980-11-14 09:28:03.670 ,6,1,0.,12.0,0.,12.0,0.,12.0,0.,12.0
1980-11-14 09:28:15.670 ,6,0,0.,12.0,0.,12.0,0.,12.0,0.,12.0
1980-11-14 09:28:27.670 ,6,0,0.,12.0,0.,12.0,0.,12.0,0.,12.0
1980-11-14 09:28:39.670 ,5,1,0.,12.0,0.,12.0,0.,12.0,0.,12.0
1980-11-14 09:28:51.670 ,5,1,0.,12.0,0.,12.0,0.,12.0,0.,12.0
1980-11-14 09:29:03.670 ,5,0,0.,12.0,0.,12.0,0.,12.0,0.,12.0
1980-11-14 09:29:15.670 ,5,0,0.,12.0,0.,12.0,0.,12.0,0.,12.0
1980-11-14 09:29:27.670 ,4,1,0.,12.0,0.,12.0,0.,12.0,0.,12.0
1980-11-14 09:29:39.670 ,4,1,0.,12.0,0.,12.0,0.,12.0,0.,12.0
1980-11-14 09:29:51.670 ,4,0,0.,12.0,0.,12.0,0.,12.0,0.,12.0
1980-11-14 09:30:03.670 ,4,0,0.,12.0,0.,12.0,0.,12.0,0.,12.0
1980-11-14 09:30:15.670 ,3,1,0.,12.0,0.,12.0,0.,12.0,0.,12.0
1980-11-14 09:30:27.670 ,3,1,0.,12.0,0.,12.0,0.,12.0,0.,12.0
1980-11-14 09:30:39.670 ,3,0,0.,12.0,0.,12.0,0.,12.0,0.,12.0
1980-11-14 09:30:51.670 ,3,0,0.,12.0,0.,12.0,0.,12.0,0.,12.0
1980-11-14 09:31:03.670 ,2,1,0.,12.0,0.,12.0,0.,12.0,0.,12.0
1980-11-14 09:31:15.670 ,2,1,0.,12.0,0.,12.0,0.,12.0,0.,12.0
1980-11-14 09:31:27.670 ,2,0,0.,12.0,0.,12.0,0.,12.0,0.,12.0
1980-11-14 09:31:39.670 ,2,0,0.,12.0,0.,12.0,0.,12.0,0.,12.0
1980-11-14 09:31:51.670 ,1,1,0.,12.0,0.,12.0,0.,12.0,0.,12.0
1980-11-14 09:32:03.670 ,1,1,0.,12.0,0.,12.0,0.,12.0,0.,12.0
1980-11-14 09:32:15.670 ,1,0,0.,12.0,0.,12.0,0.,12.0,0.,12.0
1980-11-14 09:32:27.670 ,1,0,0.,12.0,0.,12.0,0.,12.0,0.,12.0
1980-11-14 09:32:39.670 ,0,1,0.,12.0,0.,12.0,0.,12.0,0.,12.0
1980-11-14 09:32:51.670 ,0,1,0.,12.0,0.,12.0,0.,12.0,0.,12.0
1980-11-14 09:33:03.670 ,0,0,0.,12.0,0.,12.0,0.,12.0,0.,12.0
1980-11-14 09:33:15.670 ,0,0,0.,12.0,0.,12.0,0.,12.0,0.,12.0
1980-11-14 09:33:27.670 ,0,1,0.,12.0,0.,12.0,0.,12.0,0.,12.0
1980-11-14 09:33:39.670 ,0,1,0.,12.0,0.,12.0,0.,12.0,0.,12.0
1980-11-14 09:33:51.670 ,0,0,0.,12.0,0.,12.0,0.,12.0,0.,12.0
1980-11-14 09:34:03.670 ,0,0,0.,12.0,0.,12.0,0.,12.0,0.,12.0
1980-11-14 09:34:15.670 ,1,1,0.,12.0,0.,12.0,0.,12.0,0.,12.0
1980-11-14 09:34:27.670 ,1,1,0.,12.0,0.,12.0,0.,12.0,0.,12.0
1980-11-14 09:34:39.670 ,1,0,0.,12.0,0.,12.0,0.,12.0,0.,12.0
1980-11-14 09:34:51.670 ,1,0,0.,12.0,0.,12.0,0.,12.0,0.,12.0
1980-11-14 09:35:03.670 ,2,1,0.,12.0,0.,12.0,0.,12.0,0.,12.0
1980-11-14 09:35:15.670 ,2,1,0.,12.0,0.,12.0,0.,12.0,0.,12.0
1980-11-14 09:35:27.670 ,2,0,0.,12.0,0.,12.0,0.,12.0,0.,12.0
1980-11-14 09:35:39.670 ,2,0,0.,12.0,0.,12.0,0.,12.0,0.,12.0
1980-11-14 09:35:51.670 ,0,0,0.,12.0,0.,12.0,0.,12.0,0.,12.0
1980-11-14 09:36:03.670 ,0,0,0.,12.0,0.,12.0,0.,12.0,0.,12.0
1980-11-14 09:36:15.670 ,0,0,0.,12.0,0.,12.0,0.,12.0,0.,12.0
1980-11-14 09:36:27.670 ,0,0,0.,12.0,0.,12.0,0.,12.0,0.,12.0
1980-11-14 09:36:39.670 ,4,1,0.,12.0,0.,12.0,0.,12.0,0.,12.0
1980-11-14 09:36:51.670 ,4,1,0.,12.0,0.,12.0,0.,12.0,0.,12.0
1980-11-14 09:37:03.670 ,4,0,0.,12.0,0.,12.0,0.,12.0,0.,12.0
1980-11-14 09:37:15.670 ,4,0,0.,12.0,0.,12.0,0.,12.0,0.,12.0
1980-11-14 09:37:27.670 ,5,1,0.,12.0,0.,12.0,0.,12.0,0.,12.0
1980-11-14 09:37:39.670 ,5,1,0.,12.0,0.,12.0,0.,12.0,0.,12.0
1980-11-14 09:37:51.670 ,5,0,0.,12.0,0.,12.0,0.,12.0,0.,12.0
1980-11-14 09:38:03.670 ,5,0,0.,12.0,0.,12.0,0.,12.0,0.,12.0
1980-11-14 09:38:15.670 ,6,1,0.,12.0,0.,12.0,0.,12.0,0.,12.0
1980-11-14 09:38:27.670 ,6,1,0.,12.0,0.,12.0,0.,12.0,0.,12.0
1980-11-14 09:38:39.670 ,6,0,0.,12.0,0.,12.0,0.,12.0,0.,12.0
1980-11-14 09:38:51.670 ,6,0,0.,12.0,0.,12.0,0.,12.0,0.,12.0
1980-11-14 09:39:03.670 ,7,1,0.,12.0,0.,12.0,0.,12.0,0.,12.0
1980-11-14 09:39:15.670 ,7,1,0.,12.0,0.,12.0,0.,12.0,0.,12.0
1980-11-14 09:39:27.670 ,7,0,0.,12.0,0.,12.0,0.,12.0,0.,12.0
1980-11-14 09:39:39.670 ,7,0,0.,12.0,0.,12.0,0.,12.0,0.,12.0
1980-11-14 09:39:51.670 ,7,1,0.,12.0,0.,12.0,0.,12.0,0.,12.0
1980-11-14 09:40:03.670 ,7,1,0.,12.0,0.,12.0,0.,12.0,0.,12.0
1980-11-14 09:40:15.670 ,7,0,0.,12.0,0.,12.0,0.,12.0,0.,12.0
1980-11-14 09:40:27.670 ,7,0,0.,12.0,0.,12.0,0.,12.0,0.,12.0
1980-11-14 09:40:39.670 ,6,1,0.,12.0,0.,12.0,0.,12.0,0.,12.0
1980-11-14 09:40:51.670 ,6,1,0.,12.0,0.,12.0,0.,12.0,0.,12.0
1980-11-14 09:41:03.670 ,6,0,0.,12.0,0.,12.0,0.,12.0,0.,12.0
1980-11-14 09:41:15.670 ,6,0,0.,12.0,0.,12.0,0.,12.0,0.,12.0
1980-11-14 09:41:27.670 ,5,1,0.,12.0,0.,12.0,0.,12.0,0.,12.0
1980-11-14 09:41:39.670 ,5,1,0.,12.0,0.,12.0,0.,12.0,0.,12.0
1980-11-14 09:41:51.670 ,5,0,0.,12.0,0.,12.0,0.,12.0,0.,12.0
1980-11-14 09:42:03.670 ,5,0,0.,12.0,0.,12.0,0.,12.0,0.,12.0
1980-11-14 09:42:15.670 ,4,1,0.,12.0,0.,12.0,0.,12.0,0.,12.0
1980-11-14 09:42:27.670 ,4,1,0.,12.0,0.,12.0,0.,12.0,0.,12.0
1980-11-14 09:42:39.670 ,4,0,0.,12.0,0.,12.0,0.,12.0,0.,12.0
1980-11-14 09:42:51.670 ,4,0,0.,12.0,0.,12.0,0.,12.0,0.,12.0
1980-11-14 09:43:03.670 ,3,1,0.,12.0,0.,12.0,0.,12.0,0.,12.0
1980-11-14 09:43:15.670 ,3,1,0.,12.0,0.,12.0,0.,12.0,0.,12.0
1980-11-14 09:43:27.670 ,3,0,0.,12.0,0.,12.0,0.,12.0,0.,12.0
1980-11-14 09:43:39.670 ,3,0,0.,12.0,0.,12.0,0.,12.0,0.,12.0
1980-11-14 09:43:51.670 ,2,1,0.,12.0,0.,12.0,0.,12.0,0.,12.0
1980-11-14 09:44:03.670 ,2,1,0.,12.0,0.,12.0,0.,12.0,0.,12.0
1980-11-14 09:44:15.670 ,2,0,0.,12.0,0.,12.0,0.,12.0,0.,12.0
1980-11-14 09:44:27.670 ,2,0,0.,12.0,0.,12.0,0.,12.0,0.,12.0
1980-11-14 09:44:39.670 ,1,1,0.,12.0,0.,12.0,0.,12.0,0.,12.0
1980-11-14 09:44:51.670 ,1,1,0.,12.0,0.,12.0,0.,12.0,0.,12.0
1980-11-14 09:45:03.670 ,1,0,0.,12.0,0.,12.0,0.,12.0,0.,12.0
1980-11-14 09:45:15.670 ,1,0,0.,12.0,0.,12.0,0.,12.0,0.,12.0
1980-11-14 09:45:27.670 ,0,1,0.,12.0,0.,12.0,0.,12.0,0.,12.0
1980-11-14 09:45:39.670 ,0,1,0.,12.0,0.,12.0,0.,12.0,0.,12.0
1980-11-14 09:45:51.670 ,0,0,0.,12.0,0.,12.0,0.,12.0,0.,12.0
1980-11-14 09:46:03.670 ,0,0,0.,12.0,0.,12.0,0.,12.0,0.,12.0
1980-11-14 09:46:15.670 ,0,1,0.,12.0,0.,12.0,0.,12.0,0.,12.0
1980-11-14 09:46:27.670 ,0,1,0.,12.0,0.,12.0,0.,12.0,0.,12.0
1980-11-14 09:46:39.670 ,0,0,0.,12.0,0.,12.0,0.,12.0,0.,12.0
1980-11-14 09:46:51.670 ,0,0,0.,12.0,0.,12.0,0.,12.0,0.,12.0
1980-11-14 09:47:03.670 ,1,1,0.,12.0,0.,12.0,0.,12.0,0.,12.0
1980-11-14 09:47:15.670 ,1,1,0.,12.0,0.,12.0,0.,12.0,0.,12.0
1980-11-14 09:47:27.670 ,1,0,0.,12.0,0.,12.0,0.,12.0,0.,12.0
1980-11-14 09:47:39.670 ,1,0,0.,12.0,0.,12.0,0.,12.0,0.,12.0
1980-11-14 09:47:51.670 ,2,1,0.,12.0,0.,12.0,0.,12.0,0.,12.0
1980-11-14 09:48:03.670 ,2,1,0.,12.0,0.,12.0,0.,12.0,0.,12.0
1980-11-14 09:48:15.670 ,2,0,0.,12.0,0.,12.0,0.,12.0,0.,12.0
1980-11-14 09:48:27.670 ,2,0,0.,12.0,0.,12.0,0.,12.0,0.,12.0
1980-11-14 09:48:39.670 ,3,1,0.,12.0,0.,12.0,0.,12.0,0.,12.0
1980-11-14 09:48:51.670 ,3,1,0.,12.0,0.,12.0,0.,12.0,0.,12.0
1980-11-14 09:49:03.670 ,3,0,0.,12.0,0.,12.0,0.,12.0,0.,12.0
1980-11-14 09:49:15.670 ,3,0,0.,12.0,0.,12.0,0.,12.0,0.,12.0
1980-11-14 09:49:27.670 ,4,1,0.,12.0,0.,12.0,0.,12.0,0.,12.0
1980-11-14 09:49:39.670 ,4,1,0.,12.0,0.,12.0,0.,12.0,0.,12.0
1980-11-14 09:49:51.670 ,4,0,0.,12.0,0.,12.0,0.,12.0,0.,12.0
1980-11-14 09:50:03.670 ,4,0,0.,12.0,0.,12.0,0.,12.0,0.,12.0
1980-11-14 09:50:15.670 ,5,1,0.,12.0,0.,12.0,0.,12.0,0.,12.0
1980-11-14 09:50:27.670 ,5,1,0.,12.0,0.,12.0,0.,12.0,0.,12.0
1980-11-14 09:50:39.670 ,5,0,0.,12.0,0.,12.0,0.,12.0,0.,12.0
1980-11-14 09:50:51.670 ,5,0,0.,12.0,0.,12.0,0.,12.0,0.,12.0
1980-11-14 09:51:03.670 ,6,1,0.,12.0,0.,12.0,0.,12.0,0.,12.0
1980-11-14 09:51:15.670 ,6,1,0.,12.0,0.,12.0,0.,12.0,0.,12.0
1980-11-14 09:51:27.670 ,6,0,0.,12.0,0.,12.0,0.,12.0,0.,12.0
1980-11-14 09:51:39.670 ,6,0,0.,12.0,0.,12.0,0.,12.0,0.,12.0
1980-11-14 09:51:51.670 ,7,1,0.,12.0,0.,12.0,0.,12.0,0.,12.0
1980-11-14 09:52:03.670 ,7,1,0.,12.0,0.,12.0,0.,12.0,0.,12.0
1980-11-14 09:52:15.670 ,0,0,0.,12.0,0.,12.0,0.,12.0,0.,12.0
1980-11-14 09:52:27.670 ,0,0,0.,12.0,0.,12.0,0.,12.0,0.,12.0
1980-11-14 09:53:08.470 ,0,0,,0,,0,,0,,0
1980-11-14 09:53:20.470 ,0,0,0.,12.0,0.,12.0,0.,12.0,0.,12.0
1980-11-14 09:53:27.670 ,6,1,0.,12.0,0.,12.0,0.,12.0,0.,12.0
1980-11-14 09:53:39.670 ,6,1,1.,12.0,0.,12.0,0.,12.0,0.,12.0
1980-11-14 09:53:51.670 ,6,0,0.,12.0,0.,12.0,0.,12.0,0.,12.0
1980-11-14 09:54:03.670 ,6,0,0.,12.0,0.,12.0,0.,12.0,0.,12.0
1980-11-14 09:54:15.670 ,5,1,0.,12.0,0.,12.0,0.,12.0,0.,12.0
1980-11-14 09:54:27.670 ,5,1,0.,12.0,0.,12.0,0.,12.0,0.,12.0
1980-11-14 09:54:39.670 ,5,0,0.,12.0,0.,12.0,0.,12.0,0.,12.0
1980-11-14 09:54:51.670 ,5,0,0.,12.0,0.,12.0,0.,12.0,0.,12.0
1980-11-14 09:55:03.670 ,4,1,0.,12.0,0.,12.0,0.,12.0,0.,12.0
1980-11-14 09:55:15.670 ,4,1,0.,12.0,0.,12.0,0.,12.0,0.,12.0
1980-11-14 09:55:27.670 ,4,0,0.,12.0,0.,12.0,0.,12.0,0.,12.0
1980-11-14 09:55:39.670 ,4,0,0.,12.0,0.,12.0,0.,12.0,0.,12.0
1980-11-14 09:55:51.670 ,3,1,0.,12.0,0.,12.0,0.,12.0,0.,12.0
1980-11-14 09:56:03.670 ,3,1,0.,12.0,0.,12.0,0.,12.0,0.,12.0
1980-11-14 09:56:15.670 ,3,0,0.,12.0,0.,12.0,0.,12.0,0.,12.0
1980-11-14 09:56:27.670 ,3,0,0.,12.0,0.,12.0,0.,12.0,0.,12.0
1980-11-14 09:56:39.670 ,2,1,0.,12.0,0.,12.0,0.,12.0,0.,12.0
1980-11-14 09:56:51.670 ,2,1,0.,12.0,0.,12.0,0.,12.0,0.,12.0
1980-11-14 09:57:03.670 ,2,0,0.,12.0,0.,12.0,0.,12.0,0.,12.0
1980-11-14 09:57:15.670 ,2,0,0.,12.0,0.,12.0,0.,12.0,0.,12.0
1980-11-14 09:57:27.670 ,1,1,0.,12.0,0.,12.0,0.,12.0,0.,12.0
1980-11-14 09:57:39.670 ,1,1,0.,12.0,0.,12.0,0.,12.0,0.,12.0
1980-11-14 09:57:51.670 ,1,0,0.,12.0,0.,12.0,0.,12.0,0.,12.0
1980-11-14 09:58:03.670 ,1,0,0.,12.0,0.,12.0,0.,12.0,0.,12.0
1980-11-14 09:58:15.670 ,0,1,0.,12.0,0.,12.0,0.,12.0,0.,12.0
1980-11-14 09:58:27.670 ,0,1,0.,12.0,0.,12.0,0.,12.0,0.,12.0
1980-11-14 09:58:39.670 ,0,0,0.,12.0,0.,12.0,0.,12.0,0.,12.0
1980-11-14 09:58:51.670 ,0,0,0.,12.0,0.,12.0,0.,12.0,0.,12.0
1980-11-14 09:59:03.670 ,0,1,0.,12.0,0.,12.0,0.,12.0,0.,12.0
1980-11-14 09:59:15.670 ,0,1,0.,12.0,0.,12.0,0.,12.0,0.,12.0
1980-11-14 09:59:27.670 ,0,0,0.,12.0,0.,12.0,0.,12.0,0.,12.0
1980-11-14 09:59:39.670 ,0,0,0.,12.0,0.,12.0,0.,12.0,0.,12.0
1980-11-14 09:59:51.670 ,1,1,0.,12.0,0.,12.0,0.,12.0,0.,12.0
1980-11-14 10:00:03.670 ,1,1,0.,12.0,0.,12.0,0.,12.0,0.,12.0
1980-11-14 10:00:15.670 ,1,0,0.,12.0,0.,12.0,0.,12.0,0.,12.0
1980-11-14 10:00:27.670 ,1,0,0.,12.0,0.,12.0,0.,12.0,0.,12.0
1980-11-14 10:00:39.670 ,2,1,0.,12.0,0.,12.0,0.,12.0,0.,12.0
1980-11-14 10:00:51.670 ,2,1,0.,12.0,0.,12.0,0.,12.0,0.,12.0
1980-11-14 10:01:03.670 ,2,0,0.,12.0,0.,12.0,0.,12.0,0.,12.0
1980-11-14 10:01:15.670 ,2,0,0.,12.0,0.,12.0,0.,12.0,0.,12.0
1980-11-14 10:01:27.670 ,3,1,0.,12.0,0.,12.0,0.,12.0,0.,12.0
1980-11-14 10:01:39.670 ,3,1,0.,12.0,0.,12.0,0.,12.0,0.,12.0
1980-11-14 10:01:51.670 ,3,0,0.,12.0,0.,12.0,0.,12.0,0.,12.0
1980-11-14 10:02:03.670 ,3,0,0.,12.0,0.,12.0,0.,12.0,0.,12.0
1980-11-14 10:02:15.670 ,4,1,0.,12.0,0.,12.0,0.,12.0,0.,12.0
1980-11-14 10:02:27.670 ,4,1,0.,12.0,0.,12.0,0.,12.0,0.,12.0
1980-11-14 10:02:39.670 ,4,0,0.,12.0,0.,12.0,0.,12.0,0.,12.0
1980-11-14 10:02:51.670 ,4,0,0.,12.0,0.,12.0,0.,12.0,0.,12.0
1980-11-14 10:03:03.670 ,5,1,0.,12.0,0.,12.0,0.,12.0,0.,12.0
1980-11-14 10:03:15.670 ,5,1,0.,12.0,0.,12.0,0.,12.0,0.,12.0
1980-11-14 10:03:27.670 ,5,0,0.,12.0,0.,12.0,0.,12.0,0.,12.0
1980-11-14 10:03:39.670 ,5,0,0.,12.0,0.,12.0,0.,12.0,0.,12.0
1980-11-14 10:03:51.670 ,6,1,0.,12.0,0.,12.0,0.,12.0,0.,12.0
1980-11-14 10:04:03.670 ,6,1,0.,12.0,0.,12.0,0.,12.0,0.,12.0
1980-11-14 10:04:15.670 ,6,0,0.,12.0,0.,12.0,0.,12.0,0.,12.0
1980-11-14 10:04:27.670 ,6,0,0.,12.0,0.,12.0,0.,12.0,0.,12.0
1980-11-14 10:04:39.670 ,7,1,0.,12.0,0.,12.0,0.,12.0,0.,12.0
1980-11-14 10:04:51.670 ,7,1,0.,12.0,0.,12.0,0.,12.0,0.,12.0
1980-11-14 10:05:03.670 ,7,0,0.,12.0,0.,12.0,0.,12.0,0.,12.0
1980-11-14 10:05:15.670 ,7,0,0.,12.0,0.,12.0,0.,12.0,0.,12.0
1980-11-14 10:05:27.670 ,7,1,0.,12.0,0.,12.0,0.,12.0,0.,12.0
1980-11-14 10:05:39.670 ,7,1,0.,12.0,0.,12.0,0.,12.0,0.,12.0
1980-11-14 10:05:51.670 ,7,0,0.,12.0,0.,12.0,0.,12.0,0.,12.0
1980-11-14 10:06:03.670 ,7,0,0.,12.0,0.,12.0,0.,12.0,0.,12.0
1980-11-14 10:06:15.670 ,6,1,0.,12.0,0.,12.0,0.,12.0,0.,12.0
1980-11-14 10:06:27.670 ,6,1,0.,12.0,0.,12.0,0.,12.0,0.,12.0
1980-11-14 10:06:39.670 ,6,0,0.,12.0,0.,12.0,0.,12.0,0.,12.0
1980-11-14 10:06:51.670 ,6,0,0.,12.0,0.,12.0,0.,12.0,0.,12.0
1980-11-14 10:07:03.670 ,5,1,0.,12.0,0.,12.0,0.,12.0,0.,12.0
1980-11-14 10:07:15.670 ,5,1,0.,12.0,0.,12.0,0.,12.0,0.,12.0
1980-11-14 10:07:27.670 ,5,0,0.,12.0,0.,12.0,0.,12.0,0.,12.0
1980-11-14 10:07:39.670 ,5,0,0.,12.0,0.,12.0,0.,12.0,0.,12.0
1980-11-14 10:07:51.670 ,4,1,0.,12.0,0.,12.0,0.,12.0,0.,12.0
1980-11-14 10:08:03.670 ,4,1,0.,12.0,0.,12.0,0.,12.0,0.,12.0
1980-11-14 10:08:15.670 ,4,0,0.,12.0,0.,12.0,0.,12.0,0.,12.0
1980-11-14 10:08:27.670 ,4,0,0.,12.0,0.,12.0,0.,12.0,0.,12.0
1980-11-14 10:08:39.670 ,3,1,0.,12.0,0.,12.0,0.,12.0,0.,12.0
1980-11-14 10:08:51.670 ,3,1,0.,12.0,0.,12.0,0.,12.0,0.,12.0
1980-11-14 10:09:03.670 ,3,0,0.,12.0,0.,12.0,0.,12.0,0.,12.0
1980-11-14 10:09:15.670 ,3,0,0.,12.0,0.,12.0,0.,12.0,0.,12.0
1980-11-14 10:09:27.670 ,2,1,0.,12.0,0.,12.0,0.,12.0,0.,12.0
1980-11-14 10:09:39.670 ,2,1,0.,12.0,0.,12.0,0.,12.0,0.,12.0
1980-11-14 10:09:51.670 ,2,0,0.,12.0,0.,12.0,0.,12.0,0.,12.0
1980-11-14 10:10:03.670 ,2,0,0.,12.0,0.,12.0,0.,12.0,0.,12.0
1980-11-14 10:10:15.670 ,1,1,0.,12.0,0.,12.0,0.,12.0,0.,12.0
1980-11-14 10:10:27.670 ,1,1,0.,12.0,0.,12.0,0.,12.0,0.,12.0
1980-11-14 10:10:39.670 ,1,0,0.,12.0,0.,12.0,0.,12.0,0.,12.0
1980-11-14 10:10:51.670 ,1,0,0.,12.0,0.,12.0,0.,12.0,0.,12.0
1980-11-14 10:11:03.670 ,0,1,0.,12.0,0.,12.0,0.,12.0,0.,12.0
1980-11-14 10:11:15.670 ,0,1,0.,12.0,0.,12.0,0.,12.0,0.,12.0
1980-11-14 10:11:27.670 ,0,0,0.,12.0,0.,12.0,0.,12.0,0.,12.0
1980-11-14 10:11:39.670 ,0,0,0.,12.0,0.,12.0,0.,12.0,0.,12.0
1980-11-14 10:11:51.670 ,0,1,0.,12.0,0.,12.0,0.,12.0,0.,12.0
1980-11-14 10:12:03.670 ,0,1,0.,12.0,0.,12.0,0.,12.0,0.,12.0
1980-11-14 10:12:15.670 ,0,0,0.,12.0,0.,12.0,0.,12.0,0.,12.0
1980-11-14 10:12:27.670 ,0,0,0.,12.0,0.,12.0,0.,12.0,0.,12.0
1980-11-14 10:12:39.670 ,1,1,0.,12.0,0.,12.0,0.,12.0,0.,12.0
1980-11-14 10:12:51.670 ,1,1,0.,12.0,0.,12.0,0.,12.0,0.,12.0
1980-11-14 10:13:03.670 ,1,0,0.,12.0,0.,12.0,0.,12.0,0.,12.0
1980-11-14 10:13:15.670 ,1,0,0.,12.0,0.,12.0,0.,12.0,0.,12.0
1980-11-14 10:13:27.670 ,2,1,0.,12.0,0.,12.0,0.,12.0,0.,12.0
1980-11-14 10:13:39.670 ,2,1,0.,12.0,0.,12.0,0.,12.0,0.,12.0
1980-11-14 10:13:51.670 ,2,0,0.,12.0,0.,12.0,0.,12.0,0.,12.0
1980-11-14 10:14:03.670 ,2,0,0.,12.0,0.,12.0,0.,12.0,0.,12.0
1980-11-14 10:14:15.670 ,3,1,0.,12.0,0.,12.0,0.,12.0,0.,12.0
1980-11-14 10:14:27.670 ,3,1,0.,12.0,0.,12.0,0.,12.0,0.,12.0
1980-11-14 10:14:39.670 ,3,0,0.,12.0,0.,12.0,0.,12.0,0.,12.0
1980-11-14 10:14:51.670 ,3,0,0.,12.0,0.,12.0,0.,12.0,0.,12.0
1980-11-14 10:15:03.670 ,4,1,0.,12.0,0.,12.0,0.,12.0,0.,12.0
1980-11-14 10:15:15.670 ,4,1,0.,12.0,0.,12.0,0.,12.0,0.,12.0
1980-11-14 10:15:27.670 ,4,0,0.,12.0,0.,12.0,0.,12.0,0.,12.0
1980-11-14 10:15:39.670 ,4,0,0.,12.0,0.,12.0,0.,12.0,0.,12.0
1980-11-14 10:15:51.670 ,5,1,0.,12.0,0.,12.0,0.,12.0,0.,12.0
1980-11-14 10:16:03.670 ,5,1,0.,12.0,0.,12.0,0.,12.0,0.,12.0
1980-11-14 10:16:15.670 ,5,0,0.,12.0,0.,12.0,0.,12.0,0.,12.0
1980-11-14 10:16:27.670 ,5,0,0.,12.0,0.,12.0,0.,12.0,0.,12.0
1980-11-14 10:16:39.670 ,0,0,,0,,0,,0,,0
1980-11-14 10:16:51.670 ,0,0,,0,,0,,0,,0
1980-11-14 10:17:03.670 ,0,0,0.,12.0,0.,12.0,0.,12.0,0.,12.0
1980-11-14 10:17:15.670 ,0,0,0.,12.0,0.,12.0,0.,12.0,0.,12.0
1980-11-14 10:17:27.670 ,7,1,0.,12.0,0.,12.0,0.,12.0,0.,12.0
1980-11-14 10:17:39.670 ,7,1,0.,12.0,0.,12.0,0.,12.0,0.,12.0
1980-11-14 10:17:51.670 ,7,1,0.,12.0,0.,12.0,0.,12.0,0.,12.0
1980-11-14 10:18:03.670 ,7,1,0.,12.0,0.,12.0,0.,12.0,0.,12.0
1980-11-14 10:18:15.670 ,7,1,0.,12.0,0.,12.0,0.,12.0,0.,12.0
1980-11-14 10:18:27.670 ,7,1,0.,12.0,0.,12.0,0.,12.0,0.,12.0
1980-11-14 10:18:39.670 ,7,0,0.,12.0,0.,12.0,0.,12.0,0.,12.0
1980-11-14 10:18:51.670 ,7,0,0.,12.0,0.,12.0,0.,12.0,0.,12.0
1980-11-14 10:19:03.670 ,6,1,0.,12.0,0.,12.0,0.,12.0,0.,12.0
1980-11-14 10:19:15.670 ,6,1,0.,12.0,0.,12.0,0.,12.0,0.,12.0
1980-11-14 10:19:27.670 ,6,0,0.,12.0,0.,12.0,0.,12.0,0.,12.0
1980-11-14 10:19:39.670 ,6,0,0.,12.0,0.,12.0,0.,12.0,0.,12.0
1980-11-14 10:19:51.670 ,5,1,0.,12.0,0.,12.0,0.,12.0,0.,12.0
1980-11-14 10:20:03.670 ,5,1,0.,12.0,0.,12.0,0.,12.0,0.,12.0
1980-11-14 10:20:15.670 ,5,0,0.,12.0,0.,12.0,0.,12.0,0.,12.0
1980-11-14 10:20:27.670 ,5,0,0.,12.0,0.,12.0,0.,12.0,0.,12.0
1980-11-14 10:20:39.670 ,4,1,0.,12.0,0.,12.0,0.,12.0,0.,12.0
1980-11-14 10:20:51.670 ,4,1,0.,12.0,0.,12.0,0.,12.0,0.,12.0
1980-11-14 10:21:03.670 ,4,0,0.,12.0,0.,12.0,0.,12.0,0.,12.0
1980-11-14 10:21:15.670 ,4,0,0.,12.0,0.,12.0,0.,12.0,0.,12.0
1980-11-14 10:21:27.670 ,3,1,0.,12.0,0.,12.0,0.,12.0,0.,12.0
1980-11-14 10:21:39.670 ,3,1,0.,12.0,0.,12.0,0.,12.0,0.,12.0
1980-11-14 10:21:51.670 ,3,0,0.,12.0,0.,12.0,0.,12.0,0.,12.0
1980-11-14 10:22:03.670 ,3,0,0.,12.0,0.,12.0,0.,12.0,0.,12.0
1980-11-14 10:22:15.670 ,2,1,0.,12.0,0.,12.0,0.,12.0,0.,12.0
1980-11-14 10:22:27.670 ,2,1,0.,12.0,0.,12.0,0.,12.0,0.,12.0
1980-11-14 10:22:39.670 ,2,0,0.,12.0,0.,12.0,0.,12.0,0.,12.0
1980-11-14 10:22:51.670 ,2,0,0.,12.0,0.,12.0,0.,12.0,0.,12.0
1980-11-14 10:23:03.670 ,1,1,0.,12.0,0.,12.0,0.,12.0,0.,12.0
1980-11-14 10:23:15.670 ,1,1,0.,12.0,0.,12.0,0.,12.0,0.,12.0
1980-11-14 10:23:27.670 ,1,0,0.,12.0,0.,12.0,0.,12.0,0.,12.0
1980-11-14 10:23:39.670 ,1,0,0.,12.0,0.,12.0,0.,12.0,0.,12.0
1980-11-14 10:23:51.670 ,0,1,0.,12.0,0.,12.0,0.,12.0,0.,12.0
1980-11-14 10:24:03.670 ,0,1,0.,12.0,0.,12.0,0.,12.0,0.,12.0
1980-11-14 10:24:15.670 ,0,0,0.,12.0,0.,12.0,0.,12.0,0.,12.0
1980-11-14 10:24:27.670 ,0,0,0.,12.0,0.,12.0,0.,12.0,0.,12.0
1980-11-14 10:24:39.670 ,0,1,0.,12.0,0.,12.0,0.,12.0,0.,12.0
1980-11-14 10:24:51.670 ,0,1,0.,12.0,0.,12.0,0.,12.0,0.,12.0
1980-11-14 10:25:03.670 ,0,0,0.,12.0,0.,12.0,0.,12.0,0.,12.0
1980-11-14 10:25:15.670 ,0,0,0.,12.0,0.,12.0,0.,12.0,0.,12.0
1980-11-14 10:25:27.670 ,1,1,0.,12.0,0.,12.0,0.,12.0,0.,12.0
1980-11-14 10:25:39.670 ,1,1,0.,12.0,0.,12.0,0.,12.0,0.,12.0
1980-11-14 10:25:51.670 ,1,0,0.,12.0,0.,12.0,0.,12.0,0.,12.0